Location: Chevoux
(46.3801°N, 4.9476°E)
Time: 21:59:47
(UTC+00:00)

SWARM A - Pass Details

Date: 28 January 2021
Orbit: 428 x 433 km, 87.4° (Epoch: 04 March)

Event Time Altitude Azimuth Distance (km) Brightness Sun altitude
Rises 18:11:41 0° 170° (S) 2,399 8.0 -16.0°
Reaches altitude 10° 18:13:43 10° 166° (SSE) 1,537 6.9 -16.4°
Maximum altitude 18:16:58 53° 89° (E) 543 4.3 -16.9°
Enters shadow 18:18:23 29° 25° (NNE) 828 5.3 -17.2°
